FW7196 Weather Reports


time (UTC)temp
F
wind
direction
speed
knots
gust
knots
rain 1hr
in
rain 24hr
in
rain mn
in
humidity
%
barometer
mb
20260507134844 45 80 0.0 3.5 0.00 0.77 0.00 89 1008.0
20260507134535 44 80 0.9 4.3 0.00 0.80 0.00 92 1007.8
20260507134351 45 83 0.0 2.6 0.00 0.77 0.00 92 1007.9
20260507133852 45 353 0.0 0.0 0.00 0.77 0.00 94 1007.9
20260507133331 44 353 0.0 0.9 0.00 0.77 0.00 96 1007.8
20260507133037 44 348 0.0 3.5 0.00 0.80 0.00 96 1007.9
20260507132832 44 353 0.0 0.9 0.00 0.77 0.00 96 1007.9
20260507132317 44 353 0.0 1.7 0.00 0.77 0.00 97 1007.9
20260507131541 43 0 0.0 3.5 0.00 0.80 0.00 97 1008.0
20260507130041 43 0 0.0 1.7 0.00 0.80 0.00 97 1008.0
20260507124537 44 0 0.0 0.0 0.00 0.80 0.00 97 1008.0
20260507123040 43 0 0.0 0.0 0.00 0.80 0.00 97 1008.0
20260507121542 43 0 0.0 0.0 0.00 0.80 0.00 97 1007.6
20260507120036 42 0 0.0 0.0 0.00 0.80 0.00 97 1007.8
20260507114535 41 0 0.0 0.0 0.00 0.80 0.00 97 1007.6
20260507113037 41 0 0.0 0.0 0.00 0.80 0.00 97 1007.7
20260507111536 39 0 0.0 0.0 0.00 0.80 0.00 97 1007.6
20260507110037 38 0 0.0 0.0 0.00 0.80 0.00 96 1007.4
20260507104537 38 0 0.0 0.0 0.00 0.80 0.00 96 1007.7
20260507103036 37 0 0.0 0.0 0.00 0.80 0.00 96 1007.6
20260507101537 37 0 0.0 0.0 0.00 0.80 0.00 96 1007.4
20260507100046 37 0 0.0 0.0 0.00 0.80 0.00 95 1007.2
20260507094537 38 0 0.0 0.0 0.00 0.80 0.00 96 1007.5
20260507093648 38 336 0.0 0.0 0.00 0.77 0.00 96 1007.5
20260507093037 38 0 0.0 0.0 0.00 0.80 0.00 96 1007.5
20260507091539 38 0 0.0 0.0 0.00 0.80 0.00 96 1007.7
20260507090044 39 0 0.0 0.0 0.00 0.80 0.00 96 1007.8
20260507084548 39 0 0.0 0.0 0.00 0.80 0.00 96 1007.6
20260507083035 39 0 0.0 0.0 0.00 0.80 0.00 96 1007.6
20260507081534 40 0 0.0 0.0 0.00 0.80 0.00 95 1007.6
20260507080041 40 0 0.0 0.0 0.00 0.80 0.00 96 1007.5
20260507074538 41 0 0.0 0.0 0.00 0.80 0.00 95 1007.7
20260507073036 41 0 0.0 0.0 0.00 0.80 0.00 96 1007.4
20260507071537 42 0 0.0 0.0 0.00 0.80 0.00 96 1007.3
20260507070041 42 0 0.0 0.0 0.00 0.80 0.00 96 1007.2
20260507064558 42 0 0.0 0.0 0.00 0.80 0.00 96 1006.8
20260507063037 42 0 0.0 0.9 0.00 0.80 0.00 96 1007.4
20260507061536 42 0 0.0 0.0 0.00 0.80 0.00 96 1007.3
20260507060041 43 0 0.0 0.0 0.00 0.80 0.00 95 1007.5
20260507054536 43 0 0.0 0.0 0.00 0.80 0.00 96 1007.6
20260507053041 43 0 0.0 0.0 0.00 0.80 0.00 96 1007.9
20260507051545 43 0 0.0 0.0 0.00 0.80 0.00 96 1007.6
20260507050044 43 0 0.0 0.0 0.00 0.80 0.00 95 1007.9
20260507044535 43 0 0.0 0.0 0.00 0.80 0.00 95 1007.3
20260507043035 44 0 0.0 0.0 0.00 0.80 0.00 95 1007.2
20260507041537 44 0 0.0 0.0 0.00 0.80 0.00 95 1007.4
20260507040038 44 0 0.0 0.0 0.00 0.80 0.00 96 1007.6
20260507034538 44 0 0.0 0.9 0.01 0.80 0.80 96 1007.1
20260507033035 44 0 0.0 0.0 0.02 0.80 0.80 95 1007.5
20260507031535 44 0 0.0 0.0 0.02 0.80 0.80 95 1007.5
20260507030037 44 0 0.0 1.7 0.04 0.80 0.80 95 1007.5
20260507024535 44 0 0.0 1.7 0.04 0.79 0.79 95 1007.6
20260507023042 44 353 0.9 4.3 0.04 0.78 0.78 95 1007.9
20260507021541 45 343 0.0 1.7 0.06 0.78 0.78 95 1007.8
20260507020036 45 0 0.0 1.7 0.06 0.76 0.76 95 1007.8
20260507014545 45 0 0.0 1.7 0.07 0.75 0.75 95 1007.8
20260507013036 46 0 0.0 0.0 0.08 0.74 0.74 95 1007.5
20260507011539 46 0 0.0 1.7 0.07 0.72 0.72 95 1007.4
20260507010051 46 0 0.0 3.5 0.05 0.70 0.70 95 1007.2
20260507004537 47 0 0.0 1.7 0.03 0.68 0.68 95 1006.9
20260507003035 48 0 0.0 1.7 0.02 0.66 0.66 95 1006.8
20260507001537 48 0 0.0 2.6 0.01 0.65 0.65 94 1006.5
20260507000036 49 0 0.0 0.9 0.03 0.65 0.65 95 1006.0
20260506234534 49 0 0.0 0.0 0.06 0.65 0.65 95 1005.8
20260506233037 49 0 0.0 0.0 0.05 0.64 0.64 94 1005.5
20260506231538 50 0 0.0 0.0 0.05 0.64 0.64 94 1005.4
20260506230052 50 0 0.0 1.7 0.03 0.62 0.62 93 1005.2
20260506224539 51 0 0.0 3.5 0.00 0.58 0.58 93 1004.9
20260506223035 54 0 0.0 3.5 0.01 0.58 0.58 92 1004.5
20260506221541 58 0 0.0 3.5 0.12 0.58 0.58 95 1004.1
20260506220043 58 102 0.0 2.6 0.23 0.58 0.58 95 1004.1
20260506214538 58 122 0.0 4.3 0.28 0.65 0.58 95 1003.9
20260506213039 58 0 0.0 4.3 0.28 0.63 0.57 95 1003.8
20260506211536 58 0 0.9 5.2 0.18 0.52 0.46 95 1003.9
20260506210042 58 251 1.7 5.2 0.09 0.42 0.36 95 1003.7
20260506204538 59 0 0.9 6.1 0.04 0.41 0.31 95 1003.8
20260506203036 59 141 0.9 6.1 0.03 0.39 0.29 95 1003.9
20260506201542 59 135 0.0 5.2 0.03 0.38 0.28 95 1004.0
20260506200037 59 0 0.0 4.3 0.03 0.37 0.27 95 1004.1
20260506194535 59 141 0.9 7.8 0.04 0.37 0.27 95 1004.0
20260506193035 59 152 0.0 4.3 0.05 0.36 0.26 95 1004.3
20260506191535 58 130 0.0 5.2 0.05 0.35 0.25 95 1004.6
20260506190036 58 155 0.9 3.5 0.06 0.34 0.24 95 1004.8
20260506184538 58 0 0.0 2.6 0.08 0.33 0.23 95 1004.9
20260506183039 58 0 0.0 6.1 0.08 0.31 0.21 95 1004.9
20260506181538 58 138 0.0 7.0 0.10 0.30 0.20 94 1004.9
20260506180040 58 0 0.9 5.2 0.11 0.28 0.18 94 1005.2
20260506174537 58 160 0.9 5.2 0.10 0.25 0.15 94 1005.5
20260506173041 59 0 0.9 5.2 0.10 0.23 0.13 93 1005.4
20260506171550 59 0 0.0 0.0 0.07 0.19 0.09 94 1005.9
20260506170038 59 0 0.0 1.7 0.06 0.17 0.07 93 1005.8
20260506164535 59 0 0.0 1.7 0.04 0.15 0.05 93 1005.9
20260506163111 59 0 0.0 0.0 0.03 0.13 0.03 93 1006.2
20260506161537 59 0 0.0 1.7 0.02 0.12 0.02 92 1006.4
20260506160045 59 0 0.0 1.7 0.01 0.11 0.01 91 1006.5
20260506154539 59 0 0.0 1.7 0.01 0.11 0.01 90 1006.8
20260506153035 59 0 0.0 3.5 0.00 0.10 0.00 87 1007.3
20260506151540 60 0 0.0 5.2 0.00 0.10 0.00 86 1007.6
20260506150035 59 104 0.9 6.1 0.00 0.10 0.00 84 1007.7
20260506144553 60 0 0.9 5.2 0.00 0.10 0.00 83 1007.3
20260506143852 60 171 0.0 2.6 0.00 0.09 0.00 83 1007.3
20260506143036 59 60 0.0 3.5 0.00 0.10 0.00 83 1007.2
20260506142105 60 103 0.0 0.9 0.00 0.09 0.00 84 1007.4
20260506141552 60 129 0.0 1.7 0.00 0.09 0.00 84 1007.4
20260506141537 59 89 0.0 3.5 0.00 0.10 0.00 85 1007.4
20260506141059 59 87 0.0 0.0 0.00 0.09 0.00 85 1007.4
20260506140545 59 99 0.9 2.6 0.00 0.09 0.00 85 1007.4
20260506140038 59 133 0.9 3.5 0.00 0.09 0.00 85 1007.3